Location: Newark
(15.4608°S, 41.1635°W)
Time: 23:31:17
(UTC+00:00)

Vanguard 3 - Pass Details

Date: 06 August 2021
Orbit: 510 x 3260 km, 33.3° (Epoch: 20 September)

Event Time Altitude Azimuth Distance (km) Brightness Sun altitude
Rises 15:58:19 0° 281° (WNW) 3,026 10.4 53.9°
Reaches altitude 10° 16:02:11 10° 315° (NW) 2,480 10.4 53.5°
Maximum altitude 16:04:12 12° 336° (NNW) 2,573 10.6 53.2°
Drops below altitude 10° 16:06:31 10° 356° (N) 2,961 10.7 52.9°
Sets 16:12:37 0° 24° (NNE) 4,651 11.3 52.2°
